Temp
21 21 20 24 27 27 27 26 25 25 25 25 25 25 26 26 26 26 22 22 20 20 19 20 19 19 19 19 19 19 19 19 18 18 17 17 17 17 17 17 17 18 17 17 18 19 18 19 19
21 21 22 25 28 28 27 26 26 26 26 24 24 24 24 26 27 26 24 23 21 20 19 19 19 19 19 19 19 19 18 18 18 18 17 17 17 17 17 17 17 18 17 17 18 19 18 19 19
21 21 26 27 26 27 27 26 26 25 24 24 25 24 25 26 26 25 22 22 19 20 19 18 20 19 19 19 18 19 19 18 18 17 17 17 17 17 17 18 18 18 18 18 18 18 18 18 18
22 24 24 28 26 26 26 27 25 26 25 23 24 25 25 24 25 23 21 22 19 19 19 18 19 19 18 18 18 18 18 18 18 18 17 17 17 17 18 18 18 18 18 18 18 18 18 18 18
22 25 27 27 26 26 25 25 24 25 25 25 23 25 25 25 22 21 20 20 20 18 19 20 19 18 18 18 18 18 18 18 18 18 17 17 18 17 18 18 18 18 18 19 18 18 18 18 18
26 25 27 28 26 25 25 24 24 25 25 25 23 24 25 23 21 22 20 19 18 18 18 19 19 19 18 18 18 18 18 18 18 18 18 17 18 17 18 18 18 18 18 19 18 18 18 17 18
25 26 26 25 25 25 25 24 25 25 25 26 24 24 26 26 20 20 19 18 17 17 16 17 18 19 18 18 18 17 17 17 17 17 18 18 18 18 18 18 18 18 18 18 18 17 17 17 17
24 25 24 25 26 26 25 24 24 24 25 22 23 26 26 24 18 18 17 17 17 16 16 16 16 18 16 16 17 17 17 17 17 17 17 17 18 18 17 17 18 18 18 18 17 17 16 16 15
21 25 26 26 24 26 24 24 24 22 23 23 23 23 23 21 19 19 20 18 17 16 16 16 16 16 16 16 16 16 17 17 17 17 17 17 17 17 17 17 17 18 17 17 17 16 16 16 16
24 24 25 25 25 25 25 23 22 23 25 25 24 24 22 21 20 19 19 19 19 19 18 16 15 15 15 16 16 16 16 16 16 16 17 17 17 17 17 17 17 17 17 17 17 16 15 16 15
22 25 23 23 23 22 23 23 22 23 25 23 21 21 21 21 19 18 17 17 17 17 16 17 15 15 15 15 15 16 16 16 16 16 17 17 16 16 16 16 17 16 16 15 15 14 14 15 15
23 22 21 21 21 22 22 21 22 21 23 21 21 21 22 19 18 17 16 16 15 15 15 15 15 15 15 14 15 15 16 16 16 16 16 16 16 15 15 15 16 15 15 14 14 14 14 14 15
21 22 20 20 19 20 20 21 20 21 21 22 22 20 18 17 16 15 15 15 15 14 14 14 14 14 14 15 14 15 15 15 16 15 16 16 16 15 15 14 15 15 14 14 14 13 13 13 13
20 20 21 19 19 18 20 21 19 21 21 22 19 17 16 15 15 15 14 14 14 14 13 14 14 14 14 14 14 14 14 14 15 15 15 15 16 15 14 14 14 14 14 14 14 13 12 13 12
18 20 22 20 20 19 19 23 20 20 21 21 17 16 15 15 14 14 13 13 13 13 13 13 13 13 13 14 14 14 13 14 14 15 15 15 15 15 14 14 13 14 13 14 14 13 13 12 13
20 20 22 24 20 17 21 21 22 21 21 17 16 15 15 14 14 13 12 12 13 13 13 13 13 13 13 13 13 14 13 13 13 14 15 15 14 15 14 14 13 13 12 13 13 13 12 12 12
22 22 21 21 21 19 20 20 21 21 19 15 14 14 14 14 13 12 12 12 12 12 12 12 13 13 13 13 13 12 13 13 12 13 14 14 14 14 13 13 13 13 12 12 12 12 13 11 12
20 20 20 20 21 19 18 19 20 19 15 14 14 14 13 13 13 11 11 11 11 11 12 12 11 12 12 12 12 12 12 12 12 13 13 13 13 13 13 12 12 12 12 11 11 12 12 12 11
18 18 19 21 20 17 19 19 19 17 14 14 13 13 12 12 12 11 10 10 10 11 11 11 10 10 9 10 11 11 12 13 12 12 12 12 12 12 12 12 11 11 11 11 11 11 11 11 10
18 19 20 19 18 16 18 18 17 14 13 13 12 12 12 12 11 10 10 10 10 10 9 10 9 9 8 8 8 9 10 11 12 12 12 12 12 12 12 12 11 11 11 10 10 11 10 10 10
19 17 17 16 17 18 18 19 18 13 13 13 12 12 12 11 11 11 10 10 10 9 9 9 9 9 8 7 7 6 8 10 12 12 12 12 12 12 12 11 11 11 11 10 11 11 10 10 10
17 14 15 16 16 17 18 16 17 13 14 12 12 11 11 11 11 11 10 10 9 9 9 8 8 8 8 7 6 5 5 8 10 11 12 11 11 11 11 11 11 11 11 11 10 10 10 10 10
16 14 14 15 15 15 17 15 16 16 14 11 11 11 11 11 10 10 10 9 9 9 8 8 8 8 8 7 7 6 5 5 7 9 10 11 11 11 11 11 11 10 10 11 10 10 11 10 11
13 15 17 15 14 14 14 13 16 15 10 10 11 11 10 10 10 10 9 9 9 8 8 8 7 7 8 8 7 7 6 5 5 7 9 11 11 11 11 11 11 10 10 10 10 10 10 10 11
15 15 15 14 15 16 14 12 15 11 10 10 10 10 10 9 9 9 9 9 8 8 8 7 7 7 7 7 7 7 6 5 5 6 7 9 10 11 10 10 10 10 10 10 9 9 9 10 10
13 13 12 10 12 13 12 10 13 11 11 10 10 9 9 9 9 9 9 8 8 7 7 7 7 7 7 7 7 7 6 4 4 4 5 7 8 11 11 10 10 10 10 9 9 9 10 10 10
12 12 11 10 6 7 12 12 13 11 11 10 9 8 8 8 8 8 8 7 7 6 6 6 6 6 6 6 6 6 6 5 4 3 3 3 6 7 11 10 10 10 10 10 9 10 9 9 10
11 10 9 9 7 8 12 12 13 10 9 9 8 7 7 7 8 7 7 6 5 5 4 4 4 5 5 6 6 6 6 6 5 4 4 3 3 5 7 10 10 10 10 9 9 9 9 9 9
9 9 9 9 8 7 7 12 12 9 8 8 7 7 7 7 7 6 6 5 4 3 2 0 1 1 3 5 6 6 6 6 5 4 4 3 2 2 6 10 10 10 9 9 9 9 8 8 9
10 9 9 8 7 7 6 7 10 9 8 7 7 6 6 6 6 5 4 3 1 -1 -3 -4 -4 -3 -2 -1 -0 5 6 6 6 5 4 3 2 2 2 6 10 10 9 9 8 8 7 7 7
Height
788 788 788 786 791 789 796 798 795 795 793 786 787 786 784 780 782 788 769 769 770 770 772 772 774 774 775 777 779 780 780 782 783 783 783 784 785 785 787 789 788 790 791 792 792 794 795 796 798
788 788 789 785 789 794 795 794 795 789 788 790 788 786 787 782 772 772 770 770 769 770 770 772 772 774 775 776 776 778 779 780 781 781 781 781 782 783 784 786 786 787 788 789 791 792 793 795 797
789 788 784 786 794 797 799 792 790 790 789 789 787 786 783 779 774 773 771 769 769 768 769 770 770 771 772 774 776 776 776 777 777 779 779 779 780 781 781 782 784 784 785 786 788 790 792 794 796
790 788 788 787 798 795 794 789 790 787 788 790 788 787 781 776 774 772 769 768 769 768 768 767 768 770 771 772 771 774 775 774 775 775 777 777 778 778 779 778 780 782 782 784 786 788 789 793 795
790 785 788 793 796 794 791 791 791 790 787 785 788 783 781 772 773 771 770 767 766 765 763 765 765 766 767 768 770 770 770 772 773 773 773 775 775 775 775 775 776 777 778 781 783 785 788 790 794
785 786 791 794 795 793 792 791 791 789 785 782 787 781 773 769 770 769 766 766 766 765 763 761 762 763 764 764 765 767 769 769 770 771 770 771 772 773 773 773 773 772 774 778 780 782 785 789 791
787 789 792 796 795 794 790 790 789 786 785 780 781 782 769 769 771 768 766 764 762 763 762 761 759 758 760 761 762 763 764 767 767 768 769 769 768 770 771 771 770 770 770 774 777 780 782 786 789
788 787 796 794 793 793 786 787 788 789 782 784 782 776 774 772 771 768 765 764 762 760 760 758 758 757 757 757 757 759 760 762 765 765 766 767 766 767 768 768 767 768 768 770 773 777 780 785 787
795 795 795 793 798 787 787 790 787 787 784 783 781 780 779 775 771 769 767 767 766 762 759 758 756 755 755 756 755 755 756 758 759 761 763 764 765 764 765 766 766 766 767 770 771 774 776 780 788
791 794 791 788 789 789 785 792 791 786 778 779 779 779 780 777 775 772 768 765 763 761 759 759 757 755 753 751 752 752 753 754 756 756 758 760 761 761 761 762 764 763 766 769 770 768 770 778 786
794 789 791 791 793 794 790 788 791 787 781 784 787 782 779 776 775 773 771 770 767 762 759 756 753 752 751 750 748 747 747 749 752 753 754 755 757 758 757 758 761 762 763 766 767 757 766 776 782
795 788 793 796 796 794 791 793 791 790 785 789 786 783 777 780 778 777 776 773 766 761 757 753 749 747 746 746 744 743 744 743 744 748 750 752 752 754 755 756 758 760 761 764 762 759 770 776 780
796 789 795 799 800 798 794 791 795 789 787 785 782 780 782 788 785 784 782 776 770 763 758 751 746 744 740 740 740 738 736 739 739 740 744 747 749 749 752 753 754 758 760 763 768 767 770 778 781
796 795 790 797 798 799 793 789 792 789 786 782 786 787 788 790 790 786 782 779 772 767 759 752 745 742 740 737 734 733 733 734 735 736 736 740 744 746 748 751 752 755 758 761 764 764 774 773 785
799 796 784 792 795 801 796 783 791 787 786 784 793 795 795 795 793 791 789 783 776 770 763 754 746 741 737 734 734 731 729 730 730 730 732 733 736 742 742 747 749 751 756 760 763 766 772 775 784
796 795 792 779 793 804 794 790 784 784 784 791 794 797 799 799 797 793 789 784 777 771 765 759 752 745 738 733 729 727 727 725 727 725 726 728 729 734 739 741 745 748 752 756 761 763 768 776 778
792 795 796 791 786 801 798 794 784 783 789 802 802 801 800 799 795 792 791 787 781 776 768 761 754 746 740 732 726 724 722 721 721 722 720 721 723 727 733 734 740 744 746 752 757 761 764 771 779
803 803 797 794 785 795 801 795 783 789 799 803 804 803 802 800 801 800 795 790 783 777 770 763 756 749 741 732 725 720 716 714 714 715 714 715 715 719 725 729 734 739 742 747 754 758 761 763 773
807 807 798 783 783 792 793 791 786 794 804 802 804 804 802 800 800 799 796 791 786 778 770 763 756 751 743 733 724 719 712 708 705 706 709 710 708 711 715 721 726 733 736 740 747 751 757 763 768
806 802 790 788 790 795 786 788 787 799 805 805 806 808 805 800 800 798 793 787 781 776 770 764 758 752 745 737 728 719 712 705 698 697 700 701 702 702 706 712 717 724 731 735 742 746 753 759 764
800 807 806 805 794 788 784 777 781 802 802 804 805 806 803 800 798 794 791 786 780 776 771 765 757 750 743 736 724 714 706 702 695 688 689 692 693 691 694 704 710 715 723 727 732 740 747 752 761
809 817 813 805 800 789 792 789 777 797 792 800 800 801 799 797 795 792 787 783 778 773 768 763 755 746 739 732 726 719 714 706 695 687 676 680 685 685 679 692 699 707 715 722 725 732 740 748 752
813 819 814 805 797 798 783 794 774 773 784 799 801 800 800 798 796 791 786 782 776 769 764 758 751 744 735 729 724 717 709 704 696 685 677 669 673 675 676 670 686 699 706 714 719 726 732 742 745
822 814 801 799 801 791 793 801 770 778 806 804 800 799 798 796 793 789 784 778 772 765 758 751 744 738 732 724 717 711 704 696 690 684 674 662 661 666 669 671 677 688 696 704 712 718 725 733 741
814 814 807 801 788 778 790 796 779 800 805 805 801 799 799 796 790 785 779 772 763 755 748 744 736 728 724 716 709 703 697 692 685 680 671 664 652 650 654 662 669 675 685 695 704 712 719 724 734
823 821 826 835 808 787 798 799 779 796 797 800 799 803 802 795 789 781 774 767 758 750 743 734 727 716 714 708 700 695 690 686 680 675 667 660 654 643 646 650 658 666 672 684 695 704 710 719 728
826 824 835 837 859 845 786 781 780 787 791 795 798 799 795 790 783 774 767 759 749 741 734 727 717 708 702 697 691 684 682 679 674 667 663 658 649 646 632 637 648 654 662 674 686 696 702 711 721
828 834 841 842 849 834 776 777 773 789 795 791 790 790 786 780 773 766 756 749 740 734 726 719 711 700 692 687 682 675 670 667 662 657 654 652 647 643 636 625 633 645 653 662 676 686 696 703 713
836 835 840 841 845 843 825 769 779 796 799 795 792 789 786 780 773 765 753 743 738 729 722 715 707 697 686 678 672 666 661 658 652 651 648 641 642 639 630 619 626 632 643 653 665 674 685 693 703
826 826 832 838 843 839 838 801 787 794 795 798 793 790 785 778 768 759 749 740 734 730 723 716 707 697 687 678 669 656 651 647 645 640 638 633 634 633 626 620 611 623 629 642 651 662 672 683 692
Wind_Speed
3 2 3 3 3 2 2 3 3 2 2 1 1 4 6 8 7 10 0 5 8 7 11 15 19 20 21 19 19 18 19 18 15 13 12 12 12 11 11 12 12 14 14 13 14 15 20 23 23
0 3 1 1 2 2 4 1 3 5 3 2 4 7 8 13 9 9 8 7 11 9 13 15 20 21 20 21 20 19 18 17 15 14 14 14 13 13 12 13 13 14 15 15 16 18 22 25 25
1 1 2 0 1 4 3 2 6 4 4 4 3 3 6 5 3 5 5 5 13 11 14 16 22 24 23 22 22 21 21 19 17 15 15 14 14 15 15 14 16 15 16 17 17 20 24 27 28
1 3 2 1 3 2 2 5 5 6 1 4 3 10 3 10 4 4 9 8 10 12 15 17 22 23 24 23 23 22 22 22 19 16 16 15 16 15 15 15 16 17 18 20 19 22 25 28 30
1 3 1 0 1 0 3 3 3 4 4 4 2 6 6 4 8 13 11 11 12 14 17 20 22 24 25 24 24 24 24 23 22 18 17 19 20 18 16 16 17 18 20 23 21 25 26 30 29
2 2 2 2 3 2 3 2 3 4 4 4 4 7 5 3 7 8 11 11 13 14 17 20 22 23 26 26 25 24 25 25 23 21 20 21 20 21 19 17 17 16 20 26 24 28 28 32 29
1 2 0 1 2 2 2 2 4 8 9 8 2 6 5 6 7 11 11 12 14 16 16 18 21 24 24 25 26 24 25 24 23 23 22 20 19 20 19 18 17 16 21 28 27 29 31 31 28
1 2 4 3 1 2 2 1 3 4 8 1 2 5 14 13 15 13 10 13 14 16 18 19 19 24 20 21 27 26 25 24 23 23 21 20 20 19 18 17 16 16 21 29 31 32 32 29 30
1 2 2 1 2 5 2 6 2 2 8 4 3 5 16 20 19 17 17 17 17 18 20 21 21 21 21 20 23 28 26 25 25 23 22 21 17 17 16 16 15 14 21 28 31 37 35 35 29
2 2 3 1 2 7 12 5 8 5 12 4 8 13 17 23 21 20 22 22 23 23 22 22 23 23 22 21 21 24 23 23 23 22 21 20 19 17 15 13 15 14 17 25 35 41 40 36 33
0 2 3 1 3 5 10 11 1 7 9 13 14 18 19 22 26 26 27 27 27 26 24 23 24 25 25 23 20 20 25 25 25 25 24 21 20 17 17 12 16 12 19 20 16 34 42 38 31
5 3 3 1 1 5 9 8 8 4 10 10 11 12 18 21 20 29 29 32 35 32 29 26 24 25 28 28 24 23 22 25 25 26 25 23 21 16 15 16 17 19 25 19 14 23 22 23 23
3 4 2 4 7 7 7 6 3 2 8 14 19 17 19 19 24 28 27 30 32 35 35 32 23 23 26 30 32 28 32 24 27 26 26 24 22 19 16 18 21 24 24 22 27 26 27 25 27
2 9 12 2 5 1 5 5 4 7 13 19 15 15 17 18 22 25 32 32 34 33 36 35 28 21 23 28 30 31 31 32 27 27 29 28 25 21 20 21 24 26 29 28 27 27 26 27 24
3 7 6 6 4 5 5 4 2 6 18 15 14 15 16 17 23 26 28 31 34 33 33 35 33 26 21 23 30 30 30 32 29 29 29 28 27 24 23 26 27 27 28 31 30 30 32 35 31
3 3 6 7 5 7 10 9 12 16 16 14 13 13 15 17 20 25 30 33 35 35 36 35 33 31 23 21 25 27 30 30 35 29 29 30 28 25 24 26 30 28 32 32 32 32 36 36 39
3 9 14 11 2 3 5 14 11 17 12 13 13 13 13 13 18 26 32 34 35 36 37 35 33 31 30 24 22 27 31 33 35 34 30 29 29 27 25 27 32 32 32 32 39 35 39 32 27
12 10 10 19 6 12 8 12 19 12 16 12 11 13 16 17 16 23 31 32 35 37 39 34 31 31 30 28 26 25 29 32 32 35 33 30 31 32 28 28 34 35 34 33 30 31 31 38 31
8 12 19 20 17 11 13 18 19 10 11 12 13 15 16 16 15 23 30 30 33 31 36 36 33 30 31 28 26 28 26 29 31 32 38 35 38 35 36 32 36 37 37 38 38 33 30 27 34
11 16 19 12 5 13 19 17 6 11 12 12 11 17 18 18 17 25 34 37 34 29 34 35 33 30 29 28 29 27 29 32 31 32 36 39 40 40 37 36 38 40 35 37 36 32 26 23 37
13 10 11 14 18 17 15 11 3 13 9 12 12 15 18 21 21 22 31 36 30 28 32 33 35 33 28 28 30 33 35 32 27 29 33 34 39 43 41 39 38 41 39 39 44 40 30 26 26
10 7 11 18 19 15 16 9 5 13 6 12 13 16 19 23 25 24 32 35 35 32 34 35 34 34 30 28 23 21 24 29 33 32 31 33 40 40 42 44 40 41 38 39 42 48 37 32 28
4 11 13 20 22 14 3 6 3 11 8 15 16 17 21 26 27 27 31 36 40 34 38 36 36 33 35 31 26 22 19 25 33 33 32 34 37 41 44 41 43 41 38 39 42 42 40 34 35
8 9 21 9 5 5 9 5 8 6 4 11 16 21 26 29 28 29 38 39 36 36 39 36 35 36 34 34 33 27 23 23 29 34 30 29 36 39 42 42 44 43 41 41 44 43 42 38 31
8 10 7 5 3 6 8 10 8 8 7 12 18 23 28 28 25 26 27 33 37 39 42 39 36 37 38 37 35 32 25 23 24 30 29 28 26 33 41 46 44 46 43 42 43 43 40 41 35
2 2 3 7 6 16 15 7 3 9 8 13 18 24 25 25 25 27 28 35 37 40 40 42 38 39 38 37 37 34 31 20 21 24 29 33 27 34 42 50 46 46 47 45 46 44 47 41 38
5 5 3 4 2 6 6 5 10 7 14 16 22 25 25 27 27 29 33 38 39 42 41 43 43 42 39 36 37 36 31 23 18 22 26 29 32 34 41 49 45 45 47 46 45 45 46 46 45
3 4 2 2 4 7 10 19 8 14 16 25 29 27 27 29 30 29 31 41 44 42 43 44 44 42 40 36 35 36 32 30 24 21 24 26 30 30 33 50 49 46 46 47 46 43 44 46 44
4 4 2 0 4 4 7 9 6 13 12 27 27 27 28 30 29 29 30 41 41 42 38 38 39 41 39 36 35 36 34 31 26 24 22 19 28 33 34 40 50 47 46 48 47 43 42 45 40
9 8 7 4 5 8 8 14 12 4 22 23 25 26 28 31 30 29 30 36 36 42 45 43 43 44 45 45 44 39 36 31 28 27 25 22 23 31 32 35 50 50 49 48 48 45 44 47 42
Wind_Direction
340 97 153 215 222 249 57 71 322 265 262 196 174 239 288 294 277 294 166 235 214 202 196 199 199 201 204 207 209 207 211 216 218 217 218 221 220 225 231 232 230 234 235 233 218 209 197 191 180
343 130 162 213 298 36 72 37 316 344 333 311 257 250 263 283 266 279 287 260 210 208 202 201 207 211 213 214 216 218 222 224 218 218 221 221 221 220 223 230 237 238 233 231 221 210 197 189 184
92 165 239 191 39 37 12 5 326 326 292 251 274 277 301 260 257 282 321 293 211 212 208 210 215 215 216 218 225 224 223 229 223 228 224 222 224 224 223 224 235 239 233 227 221 204 197 192 186
229 188 141 287 48 110 335 358 325 316 129 214 283 286 242 259 290 258 300 272 224 219 222 222 219 222 226 226 224 228 230 231 231 227 223 227 224 229 227 224 230 241 235 223 214 200 193 188 187
10 248 192 137 67 276 242 296 285 295 298 256 221 300 275 268 271 281 286 275 242 231 226 228 227 225 227 231 234 233 228 232 234 234 220 225 229 233 232 232 232 237 233 216 211 199 195 183 186
234 290 252 334 7 338 284 261 280 284 291 279 247 278 262 260 297 302 276 262 255 243 237 233 234 233 232 232 233 236 231 230 231 233 226 226 233 231 236 236 239 241 228 210 206 195 192 180 179
315 286 303 252 305 293 127 193 284 335 307 318 279 277 302 314 344 317 279 263 255 253 249 241 236 232 235 236 234 229 228 231 230 230 232 230 229 231 236 235 238 241 217 203 203 194 180 191 193
165 224 172 209 347 317 144 231 321 286 323 5 289 317 334 357 331 322 296 274 265 254 252 247 243 241 234 234 229 225 225 228 231 231 235 235 232 229 230 233 234 240 218 199 196 182 175 169 160
325 212 217 245 203 348 4 331 29 268 280 282 242 305 334 320 315 316 320 308 292 276 262 255 247 241 235 235 230 225 225 228 227 229 232 233 230 226 220 225 225 224 215 203 193 172 164 163 163
253 249 168 20 23 322 318 327 328 297 327 335 326 359 337 340 346 350 348 338 328 312 291 273 263 251 243 233 231 225 224 222 224 222 221 224 226 220 212 217 221 215 212 205 191 167 164 158 154
307 272 137 56 320 320 309 334 37 309 358 16 347 341 343 359 15 16 11 5 350 334 313 296 274 257 251 240 233 227 222 221 222 222 220 216 216 219 213 207 213 204 194 165 162 145 151 153 151
282 264 210 85 134 314 302 331 336 310 355 350 359 349 7 23 28 27 21 17 11 2 344 320 294 268 253 247 237 231 225 220 217 221 216 213 209 211 202 205 198 183 171 164 156 139 151 157 169
249 311 80 139 303 276 300 311 314 348 25 350 357 11 34 40 32 25 17 11 7 8 0 349 317 284 265 248 242 234 230 226 223 215 215 213 216 211 207 198 185 189 179 172 154 146 147 161 162
328 294 294 128 137 212 333 317 312 63 352 359 15 52 62 44 33 26 19 11 4 359 0 358 351 316 285 264 248 241 234 231 227 221 215 215 218 217 204 193 176 168 160 156 159 156 161 160 176
308 303 315 133 96 145 274 314 127 18 351 354 54 73 52 39 30 23 14 8 6 1 355 358 354 344 312 284 265 248 247 235 229 224 221 214 211 212 200 194 186 171 167 162 163 170 176 169 175
275 229 345 350 27 148 343 299 334 344 344 61 85 58 40 35 26 19 12 5 1 358 357 354 354 350 336 304 276 261 250 246 237 226 222 216 209 207 203 191 193 184 181 180 172 171 161 169 171
19 320 327 326 350 44 343 296 321 351 30 87 67 52 37 24 22 16 8 4 2 357 351 347 347 346 343 323 295 268 261 250 241 238 225 217 211 204 204 192 196 186 179 175 176 171 168 162 170
306 311 307 309 292 341 308 284 318 21 99 89 66 38 23 13 18 9 1 358 356 354 353 348 343 342 338 337 320 292 264 253 244 239 232 222 209 204 198 196 196 193 177 175 178 177 169 166 166
296 297 304 311 329 339 325 317 331 81 86 71 51 29 13 4 5 357 356 353 349 353 355 349 345 341 342 335 335 324 300 262 243 238 233 230 218 206 199 196 197 191 183 180 180 174 168 160 161
309 305 308 307 323 334 318 322 74 110 80 58 46 17 12 4 355 352 352 347 346 345 350 348 344 340 339 340 328 328 320 300 257 236 235 233 221 212 200 196 194 189 183 174 174 173 162 162 166
310 309 317 304 317 296 331 301 111 125 75 43 38 14 10 6 353 345 347 345 340 339 341 339 335 331 331 334 343 336 329 320 296 236 228 230 218 210 201 198 194 189 186 176 178 180 178 168 176
299 354 311 312 321 312 339 286 322 181 49 25 16 8 2 356 351 347 344 345 340 332 336 330 330 327 324 327 328 342 323 311 308 291 232 224 226 222 200 196 193 186 185 182 179 180 179 177 172
329 330 307 302 294 311 294 240 205 231 356 4 3 357 353 350 346 341 339 335 329 326 331 323 324 318 321 315 314 319 318 314 306 301 286 217 215 217 201 189 188 189 186 186 183 182 180 185 177
322 329 308 293 282 251 132 351 252 338 32 1 356 354 348 344 336 333 332 330 325 318 323 317 312 313 310 313 304 309 313 319 314 304 296 265 209 205 200 192 188 189 187 186 186 185 185 185 194
359 350 319 307 276 281 170 327 308 102 44 14 358 351 338 333 331 325 326 324 320 319 318 314 305 306 303 307 302 301 307 312 316 306 303 275 248 195 194 194 189 187 186 186 184 185 187 184 185
113 167 239 278 302 295 296 220 174 141 20 9 356 341 329 330 327 321 321 319 316 316 312 310 303 300 297 299 299 293 296 300 310 319 318 305 273 224 199 193 190 188 183 184 185 187 186 190 190
149 219 37 269 210 279 255 239 192 40 351 348 337 334 330 330 325 323 319 315 313 311 308 308 304 300 294 292 296 288 285 286 295 307 307 315 305 290 201 190 190 186 182 182 185 189 185 187 197
265 109 164 182 279 289 283 298 271 353 341 337 337 334 333 328 324 323 318 315 313 312 310 308 303 301 295 291 288 283 281 283 289 299 300 301 313 305 302 192 193 188 183 180 184 186 187 184 191
161 178 146 7 251 264 295 290 27 341 341 335 330 331 330 322 321 315 314 316 320 317 323 331 327 322 315 296 285 279 276 272 281 286 282 295 300 306 264 212 193 188 184 181 182 184 185 185 187
231 197 179 197 225 236 286 277 301 281 339 328 325 327 324 318 319 318 319 318 325 321 315 315 312 310 307 304 310 289 274 268 270 277 283 296 292 301 302 282 191 190 183 183 182 181 184 185 188